Regional Weather Roundup
Issued by NWS

Home | Current Version | Previous Version | Text Only | Print | Product List | Glossary On
Versions: 1 2 3 4 5 6 7 8 9 10 11 12 13 14 15 16 17 18 19 20 21 22 23 24 25 26 27 28 29 30 31 32 33 34 35 36 37 38 39 40 41 42 43 44 45 46 47 48 49 50
687
ASUS44 KJAN 010310
RWRMS

MISSISSIPPI HOURLY WEATHER ROUNDUP
NATIONAL WEATHER SERVICE JACKSON MS
1000 PM CDT TUE MAR 31 2015

NOTE: "FAIR: INDICATES FEW OR NO CLOUDS BELOW 12,000 FEET WITH NO
SIGNIFICANT WEATHER AND/OR OBSTRUCTIONS TO VISIBILITY.

MSZ001>002-007>008-010>013-018>021-025>028-034>036-010400-
NORTHWEST MISSISSIPPI

CITY           SKY/WX    TMP DP  RH WIND       PRES   REMARKS
CLARKSDALE       N/A     64  61  88 S6        29.96R
CLEVELAND      FAIR      64  63  97 SW6       29.96R
GREENWOOD      CLEAR     65  58  78 SW6       29.95S
GREENVILLE     CLEAR     63  59  87 CALM      29.96R
OLIVE BRANCH   CLEAR     64  64 100 SW8       29.94S
OXFORD         MOCLDY    64  57  77 SW3       29.98R
TUNICA         CLOUDY    63  59  88 SE6       29.94S
$$

MSZ003>006-009-014>017-022>024-029>033-037>039-010400-
NORTHEAST MISSISSIPPI

CITY           SKY/WX    TMP DP  RH WIND       PRES   REMARKS
COLUMBUS AFB   CLEAR     60  59  99 SE5       29.97R
CORINTH        CLOUDY    66  55  68 NE17      29.96S
GOLDN TRIANGLE CLEAR     66  55  68 SW3       29.96S
STARKVILLE     FAIR      59  55  88 CALM      29.97R
TUPELO         CLOUDY    64  60  87 CALM      29.96R
$$

MSZ040-058-010400-
CENTRAL MISSISSIPPI

CITY           SKY/WX    TMP DP  RH WIND       PRES   REMARKS
JACKSON INTL   CLEAR     69  56  62 SW8       29.99R
JACKSON HAWKNS CLEAR     71  56  58 SW6       29.99S
MERIDIAN KEY   MOCLDY    69  56  62 SW7       29.98R
MERIDIAN NAS   PTCLDY    71  55  56 W13       29.98R
RAYMOND        FAIR      72  68  88 MISG      29.99S
VICKSBURG      CLEAR     72  56  57 S5        29.99R
$$

MSZ059>079-010400-
SOUTH MISSISSIPPI

CITY           SKY/WX    TMP DP  RH WIND       PRES   REMARKS
BROOKHAVEN     FAIR     N/A N/A N/A CALM      30.04S
HATTIESBURG    CLEAR     69  59  70 SW3       30.04R
MCCOMB         CLEAR     68  60  75 S5        30.05R
NATCHEZ        PTCLDY    70  55  60 S7        30.02S
PINE BELT      PTCLDY    64  55  72 S6        30.04S
$$

MSZ080>082-010400-
COASTAL MISSISSIPPI

CITY           SKY/WX    TMP DP  RH WIND       PRES   REMARKS
BILOXI         CLEAR     71  67  88 SW10      30.05R
PASCAGOULA     PTCLDY    71  66  84 SW6       30.06R
GULFPORT       CLEAR     72  62  71 W3        30.05R
$$



USA.gov is the U.S. government's official web portal to all federal, state and local government web resources and services.